Regional Weather Roundup
Issued by NWS

Home | Current Version | Previous Version | Graphics & Text | Print | Product List | Glossary On
Versions: 1 2 3 4 5 6 7 8 9 10 11 12 13 14 15 16 17 18 19 20 21 22 23 24 25 26 27 28 29 30 31 32 33 34 35 36 37 38 39 40 41 42 43 44 45 46 47 48 49 50
000
ASUS43 KMPX 200510
RWRMN
WEATHER ROUNDUP FOR MINNESOTA
NATIONAL WEATHER SERVICE TWIN CITIES/CHANHASSEN MN
1100 PM CST FRI DEC 19 2014


NOTE: "FAIR" INDICATES FEW OR NO CLOUDS BELOW 12,000 FEET WITH NO
SIGNIFICANT WEATHER AND/OR OBSTRUCTIONS TO VISIBILITY. N/A MEANS
CURRENT SKY AND/OR WEATHER CONDITIONS ARE NOT AVAILABLE.

MNZ060>063-068>070-200600-
   Twin Cities Metro

CITY           SKY/WX    TMP DP  RH WIND       PRES   REMARKS
TWIN CITIES    CLOUDY    29  24  82 SE9       30.17F HAZE    WCI  20
ST PAUL        CLOUDY    29  25  85 SE8       30.19S WCI  21
CRYSTAL        CLOUDY    30  26  85 SE12      30.15S FOG     WCI  20
BLAINE         CLOUDY    30  27  86 SE10      30.16S WCI  21
LAKEVILLE      CLOUDY    28  25  86 SE7       30.17S WCI  21
EDEN PRAIRIE   CLOUDY    30  25  81 SE10      30.15S HAZE    WCI  21
SOUTH ST PAUL  CLOUDY    30  25  82 SE7       30.18S WCI  23
LAKE ELMO      CLOUDY    30  27  86 SE7       30.19S WCI  23
$$
MNZ001>005-007-008-013>017-022>024-027-028-200600-
   Northwest Minnesota

CITY           SKY/WX    TMP DP  RH WIND       PRES   REMARKS
BEMIDJI        LGT SNOW  25  24  95 SE7       30.02S WCI  17
HALLOCK        CLOUDY    28  28 100 CALM      30.00S FOG
ROSEAU         CLOUDY    27  21  80 SE6       30.02F FOG     WCI  20
WARROAD        CLOUDY    25  21  86 SE7       30.04S FOG     WCI  17
THIEF RVR FALL CLOUDY    27  27 100 SE8       30.01S WCI  18
CROOKSTON      CLOUDY    30  28  93 S10       30.02S FOG     WCI  21
FOSSTON        CLOUDY    27  25  93 S6        30.02R FOG     WCI  20
DETROIT LAKES  CLOUDY    30  30 100 S10       30.02S FOG     WCI  21
MOORHEAD       CLOUDY    32  32 100 S10       30.03S FOG     WCI  24
PARK RAPIDS    CLOUDY    29  27  92 S8        30.02F FOG     WCI  21
MAHNOMEN       CLOUDY    29  28  96 S10       30.01S FOG     WCI  20
$$
MNZ006-009>011-018-025>026-200600-
   North Central Minnesota

CITY           SKY/WX    TMP DP  RH WIND       PRES   REMARKS
BAUDETTE       LGT SNOW  25  22  88 SE6       30.04F FOG     WCI  18
FLAG ISLAND    CLOUDY    25  23  93 S14       30.04S FOG     WCI  13
INTL FALLS     LGT SNOW  24  21  88 SE8       30.08S FOG     WCI  15
WASKISH        LGT SNOW  25  25 100 CALM      30.05S
BIG FORK       LGT SNOW  27  23  86 SE5       30.07S WCI  21
LONGVILLE      CLOUDY    27  25  93 SE7       30.06S FOG     WCI  19
GRAND RAPIDS   CLOUDY    25  21  86 SE8       30.07S WCI  16
CRANE LAKE     LGT SNOW  23  21  93 CALM      30.13S VSB 3/4
ORR            MIX PCPN  25  21  86 S7        30.07S WCI  17
COOK           LGT SNOW  25  23  93 S6        30.10S WCI  18
WALKER         CLOUDY    26  24  95 SE6       30.03F FOG     WCI  19
$$
MNZ012-019>021-037-200600-
   Northeast Minnesota

CITY           SKY/WX    TMP DP  RH WIND       PRES   REMARKS
DULUTH         CLOUDY    25  22  88 S7        30.13F FOG     WCI  17
ELY            LGT SNOW  25  21  86 S3        30.12S
HIBBING        CLOUDY    25  22  88 S7        30.10F FOG     WCI  17
EVELETH        CLOUDY    27  25  93 S7        30.12S FOG     WCI  19
DULUTH HARBOR  CLOUDY    28  25  86 CALM      30.19F
TWO HARBORS    CLOUDY    28  23  80 S2        30.14F
SILVER BAY     CLOUDY    27  25  93 CALM      30.14F FOG
GRAND MARAIS     N/A     29  23  78 CALM      30.20F
G MARAIS ARPRT CLOUDY    21  18  86 CALM      30.14S FOG
$$
MNZ029>031-032-039>041-046>048-054>057-064-200600-
   West Central Minnesota

CITY           SKY/WX    TMP DP  RH WIND       PRES   REMARKS
FERGUS FALLS   CLOUDY    30  28  93 S14       30.06S FOG     WCI  20
WHEATON        CLOUDY    28  27  93 SE7       30.06S FOG     WCI  21
MORRIS         CLOUDY    30  28  93 S10       30.05R FOG     WCI  21
ALEXANDRIA     CLOUDY    30  28  92 S12       30.06S FOG     WCI  20
ELBOW LAKE     CLOUDY    29  29  98 S16       30.03F FOG     WCI  18
WADENA         CLOUDY    28  28 100 S6        30.04S FOG     WCI  22
GLENWOOD       CLOUDY    30  28  93 S16G22    30.07R FOG     WCI  19
APPLETON       CLOUDY    32  28  86 S8        30.06S WCI  25
BENSON         CLOUDY    30  28  93 SW10      30.07S FOG     WCI  21
ORTONVILLE     CLOUDY    30  27  86 S6        30.05R WCI  24
MADISON        PTCLDY    36  32  87 S6        30.05S
WILLMAR        CLOUDY    32  28  86 S5        30.10R WCI  27
$$
MNZ033>034-036-042>043-049>051-058-059-200600-
   Central Minnesota

CITY           SKY/WX    TMP DP  RH WIND       PRES   REMARKS
ST CLOUD       CLOUDY    31  27  85 SE10      30.11F FOG     WCI  22
SAUK CENTRE    CLOUDY    30  28  93 S10       30.08S WCI  21
PAYNESVILLE    CLOUDY    28  28  96 SE7       30.09S FOG     WCI  21
AITKIN         CLOUDY    28  25  86 SE7       30.09S HAZE    WCI  21
PINE RIVER     CLOUDY    27  27 100 S6        30.10R FOG     WCI  20
BRAINERD       CLOUDY    27  25  92 SE10      30.08F FOG     WCI  17
STAPLES        CLOUDY    27  27 100 S5        30.06S FOG     WCI  21
LONG PRAIRIE   CLOUDY    30  28  93 SE10      30.07S FOG     WCI  21
LITTLE FALLS   CLOUDY    30  28  93 SE7       30.09F FOG     WCI  23
LITCHFIELD     CLOUDY    32  32 100 S5        30.11S FOG     WCI  27
BUFFALO        CLOUDY    30  28  90 SE8       30.15R FOG     WCI  23
MAPLE LAKE     CLOUDY    31  30  94 SE7       30.14R FOG     WCI  24
$$
MNZ037-044-045-052-053-200600-
   East Central Minnesota

CITY           SKY/WX    TMP DP  RH WIND       PRES   REMARKS
PRINCETON      CLOUDY    30  27  86 SE7       30.14S FOG     WCI  23
MORA           CLOUDY    27  23  86 SE6       30.16F WCI  20
CAMBRIDGE      MOCLDY    30  21  69 SE5       30.14S WCI  25
RUSH CITY      CLOUDY    28  24  86 SE5       30.17S WCI  22
MOOSE LAKE     CLOUDY    27  23  86 CALM      30.13S
HINCKLEY       CLOUDY    28  27  93 CALM      30.15F
CLOQUET        CLOUDY    25  21  86 SE5       30.13F FOG     WCI  19
MCGREGOR       CLOUDY    27  27 100 S9        30.11S WCI  17
$$
MNZ071>073-080-081-089-090-097-098-200600-
   Southwest Minnesota

CITY           SKY/WX    TMP DP  RH WIND       PRES   REMARKS
MONTEVIDEO     CLOUDY    30  30 100 SW9       30.08S FOG     WCI  22
GRANITE FALLS  CLOUDY    31  28  90 S10       30.10R WCI  22
CANBY          CLOUDY    32  30  92 S9        30.06S WCI  24
MARSHALL       CLOUDY    30  27  86 S12       30.08S WCI  21
REDWOOD FALLS  CLOUDY    32  28  85 S14       30.11R FOG     WCI  22
OLIVIA         CLOUDY    32  30  93 S9        30.09S WCI  24
PIPESTONE      CLOUDY    30  28  93 SW6       30.06R FOG     WCI  24
WINDOM         CLOUDY    30  28  93 S8        30.10S FOG     WCI  23
WORTHINGTON    CLOUDY    28  27  93 S13       30.09S WCI  18
JACKSON        CLOUDY    32  30  93 S14       30.11S WCI  22
TRACY          CLOUDY    32  29  91 S13       30.08S WCI  22
SLAYTON        CLOUDY    29  29  99 S7        30.07S FOG     WCI  22
$$
MNZ065>067-074>077-082>085-091>093-200600-
   South Central Minnesota

CITY           SKY/WX    TMP DP  RH WIND       PRES   REMARKS
MANKATO        CLOUDY    30  27  86 S12       30.15S WCI  21
NEW ULM        CLOUDY    30  30 100 S9        30.13S FOG     WCI  22
ST JAMES       CLOUDY    34  30  86 SE9       30.14S FOG     WCI  26
FAIRMONT       CLOUDY    30  25  80 S10       30.13S WCI  21
GLENCOE        CLOUDY    32  31  96 SE10      30.13S FOG     WCI  23
FARIBAULT      CLOUDY    28  27  93 SE7       30.17S WCI  21
OWATONNA       CLOUDY    28  25  86 SE13      30.17S FOG     WCI  18
WASECA         CLOUDY    30  28  93 SE8       30.18R FOG     WCI  23
ALBERT LEA     CLOUDY    28  28 100 S7        30.16S FOG     WCI  21
$$
MNZ078>079-086>088-094>096-200600-
   Southeast Minnesota

CITY           SKY/WX    TMP DP  RH WIND       PRES   REMARKS
ROCHESTER      CLOUDY    27  22  81 S9        30.18S WCI  18
RED WING       CLOUDY    30  23  74 SE6       30.20S WCI  24
STANTON        CLOUDY    31  26  81 S9        30.17S WCI  22
DODGE CENTER   CLOUDY    28  27  93 S9        30.17S FOG     WCI  20
WINONA         CLOUDY    30  23  74 SE5       30.24S WCI  25
AUSTIN         CLOUDY    28  25  86 S6        30.18R WCI  22
PRESTON        CLOUDY    26  22  84 S6        30.19S WCI  20
$$
ABBREVIATIONS USED IN REMARKS
   TC - TEMPERATURES IN CELSIUS
  WCI - WIND CHILL INDEX
   HX - HEAT INDEX
  VSB - VISIBILITY
$$



USA.gov is the U.S. government's official web portal to all federal, state and local government web resources and services.